Radiation Dose at Monitoring Post of Fukushima Daini Nuclear Power Station
Date,Time,MP-1(microSv/h),MP-2(microSv/h),MP-3(microSv/h),MP-4(microSv/h),MP-5(microSv/h),MP-6(microSv/h),MP-7(microSv/h),Wind Direction,Wind Velocity(m/s),Rain
2021/04/10,00:00,0.174,0.153,0.254,0.238,0.236,0.134,0.083,east-northeast,1.8,No
2021/04/10,00:10,0.172,0.154,0.253,0.237,0.236,0.135,0.083,northeast,2.1,No
2021/04/10,00:20,0.172,0.154,0.252,0.238,0.235,0.134,0.083,north,2.5,No
2021/04/10,00:30,0.172,0.153,0.252,0.239,0.235,0.135,0.083,north,3.2,No
2021/04/10,00:40,0.173,0.154,0.253,0.238,0.237,0.134,0.083,north,2.6,No
2021/04/10,00:50,0.172,0.153,0.253,0.238,0.236,0.135,0.083,north-northeast,2.6,No
2021/04/10,01:00,0.173,0.153,0.253,0.238,0.235,0.135,0.083,northeast,2.3,No
2021/04/10,01:10,0.173,0.153,0.253,0.238,0.236,0.135,0.083,north-northeast,2.5,No
2021/04/10,01:20,0.173,0.153,0.253,0.239,0.236,0.134,0.082,north,3.5,No
2021/04/10,01:30,0.172,0.154,0.251,0.238,0.234,0.135,0.083,north,5.5,No
2021/04/10,01:40,0.173,0.153,0.252,0.238,0.236,0.135,0.082,north-northwest,5.1,No
2021/04/10,01:50,0.172,0.154,0.252,0.238,0.236,0.134,0.083,north-northwest,5.1,No
2021/04/10,02:00,0.173,0.154,0.253,0.239,0.236,0.135,0.083,north-northwest,3.9,No
2021/04/10,02:10,0.173,0.153,0.252,0.238,0.235,0.134,0.083,north-northwest,3.5,No
2021/04/10,02:20,0.174,0.153,0.253,0.238,0.236,0.134,0.084,northwest,4.3,No
2021/04/10,02:30,0.172,0.154,0.252,0.238,0.235,0.135,0.083,northwest,4.7,No
2021/04/10,02:40,0.174,0.154,0.253,0.238,0.237,0.134,0.082,northwest,6.1,No
2021/04/10,02:50,0.173,0.154,0.252,0.238,0.235,0.134,0.084,northwest,5.0,No
2021/04/10,03:00,0.172,0.153,0.252,0.239,0.236,0.135,0.084,northwest,4.3,No
2021/04/10,03:10,0.172,0.153,0.252,0.239,0.235,0.135,0.082,northwest,4.3,No
2021/04/10,03:20,0.172,0.153,0.253,0.238,0.234,0.133,0.083,northwest,4.5,No
2021/04/10,03:30,0.172,0.154,0.252,0.238,0.236,0.135,0.083,northwest,4.3,No
2021/04/10,03:40,0.173,0.153,0.252,0.237,0.236,0.134,0.083,northwest,3.8,No
2021/04/10,03:50,0.172,0.154,0.253,0.239,0.236,0.134,0.083,northwest,4.0,No
2021/04/10,04:00,0.173,0.153,0.253,0.238,0.235,0.135,0.083,northwest,3.8,No
2021/04/10,04:10,0.172,0.153,0.253,0.238,0.234,0.135,0.083,northwest,3.7,No
2021/04/10,04:20,0.172,0.153,0.252,0.237,0.236,0.135,0.082,northwest,3.4,No
2021/04/10,04:30,0.171,0.153,0.253,0.237,0.235,0.134,0.083,northwest,3.1,No
2021/04/10,04:40,0.173,0.154,0.252,0.238,0.237,0.134,0.083,west-northwest,3.8,No
2021/04/10,04:50,0.172,0.154,0.252,0.237,0.235,0.135,0.083,west-northwest,4.6,No
2021/04/10,05:00,0.173,0.154,0.252,0.238,0.235,0.134,0.083,west-northwest,5.0,No
2021/04/10,05:10,0.173,0.154,0.252,0.238,0.235,0.134,0.083,west-northwest,5.2,No
2021/04/10,05:20,0.172,0.154,0.252,0.238,0.236,0.135,0.083,northwest,6.2,No
2021/04/10,05:30,0.173,0.154,0.252,0.238,0.235,0.136,0.083,northwest,5.5,No
2021/04/10,05:40,0.173,0.155,0.253,0.238,0.235,0.134,0.083,west-northwest,5.8,No
2021/04/10,05:50,0.172,0.154,0.252,0.237,0.236,0.134,0.082,west-northwest,6.1,No
2021/04/10,06:00,0.173,0.154,0.252,0.238,0.236,0.135,0.083,northwest,5.6,No
2021/04/10,06:10,0.173,0.152,0.252,0.238,0.236,0.135,0.082,northwest,4.9,No
2021/04/10,06:20,0.172,0.153,0.251,0.237,0.236,0.135,0.083,northwest,5.2,No
2021/04/10,06:30,0.173,0.154,0.251,0.238,0.235,0.135,0.082,northwest,4.4,No
2021/04/10,06:40,0.171,0.154,0.252,0.237,0.235,0.134,0.082,northwest,4.7,No
2021/04/10,06:50,0.171,0.153,0.252,0.237,0.237,0.135,0.082,west-northwest,4.3,No
2021/04/10,07:00,0.172,0.154,0.252,0.237,0.235,0.134,0.082,northwest,2.8,No
2021/04/10,07:10,0.172,0.154,0.253,0.237,0.236,0.134,0.082,northwest,3.6,No
2021/04/10,07:20,0.172,0.153,0.251,0.236,0.235,0.134,0.083,northwest,2.9,No
2021/04/10,07:30,0.173,0.153,0.251,0.238,0.235,0.134,0.083,west-northwest,3.0,No
2021/04/10,07:40,0.173,0.153,0.250,0.237,0.236,0.134,0.083,northwest,3.7,No
2021/04/10,07:50,0.173,0.153,0.250,0.236,0.235,0.134,0.082,northwest,3.9,No
2021/04/10,08:00,0.172,0.154,0.251,0.238,0.236,0.135,0.082,northwest,3.4,No
2021/04/10,08:10,0.173,0.153,0.250,0.235,0.236,0.134,0.083,north-northwest,6.9,No
2021/04/10,08:20,0.172,0.153,0.250,0.236,0.237,0.135,0.082,northwest,6.6,No
2021/04/10,08:30,0.173,0.153,0.252,0.236,0.236,0.134,0.082,north-northwest,6.9,No
2021/04/10,08:40,0.172,0.154,0.251,0.236,0.235,0.134,0.082,north-northwest,6.1,No
2021/04/10,08:50,0.171,0.153,0.252,0.237,0.236,0.134,0.082,northwest,4.0,No
2021/04/10,09:00,0.172,0.154,0.250,0.236,0.235,0.134,0.082,northwest,3.0,No
2021/04/10,09:10,0.171,0.153,0.251,0.237,0.236,0.134,0.082,north-northwest,6.2,No
2021/04/10,09:20,0.172,0.153,0.250,0.236,0.235,0.133,0.083,north-northwest,4.6,No
2021/04/10,09:30,0.171,0.153,0.251,0.236,0.237,0.133,0.083,north,5.8,No
2021/04/10,09:40,0.173,0.153,0.250,0.236,0.233,0.134,0.083,north,5.8,No
2021/04/10,09:50,0.171,0.152,0.250,0.237,0.237,0.133,0.083,north-northeast,4.6,No
2021/04/10,10:00,0.172,0.153,0.251,0.238,0.234,0.134,0.083,northeast,5.1,No
2021/04/10,10:10,0.172,0.153,0.250,0.237,0.236,0.133,0.083,northeast,6.4,No
2021/04/10,10:20,0.172,0.152,0.252,0.238,0.235,0.134,0.082,northeast,7.6,No
2021/04/10,10:30,0.173,0.154,0.252,0.238,0.237,0.133,0.083,northeast,5.9,No
2021/04/10,10:40,0.171,0.153,0.252,0.237,0.235,0.134,0.082,northeast,5.5,No
2021/04/10,10:50,0.174,0.152,0.253,0.236,0.237,0.133,0.083,northeast,6.0,No
2021/04/10,11:00,0.171,0.153,0.251,0.238,0.236,0.134,0.083,northeast,6.5,No
2021/04/10,11:10,0.172,0.153,0.252,0.236,0.236,0.134,0.083,northeast,5.8,No
2021/04/10,11:20,0.172,0.154,0.253,0.238,0.235,0.134,0.083,northeast,6.7,No
2021/04/10,11:30,0.172,0.152,0.252,0.236,0.237,0.134,0.083,northeast,6.7,No
2021/04/10,11:40,0.172,0.153,0.251,0.240,0.235,0.134,0.083,northeast,4.8,No
2021/04/10,11:50,0.171,0.153,0.254,0.236,0.237,0.134,0.083,northeast,3.5,No
2021/04/10,12:00,0.173,0.153,0.252,0.239,0.234,0.134,0.083,east-northeast,3.6,No
2021/04/10,12:10,0.171,0.153,0.253,0.237,0.236,0.134,0.082,northeast,4.1,No
2021/04/10,12:20,0.173,0.152,0.253,0.237,0.235,0.134,0.083,northeast,4.6,No
2021/04/10,12:30,0.171,0.153,0.253,0.237,0.236,0.135,0.082,north-northeast,5.7,No
2021/04/10,12:40,0.172,0.152,0.252,0.238,0.235,0.134,0.082,northeast,4.0,No
2021/04/10,12:50,0.172,0.154,0.251,0.237,0.237,0.134,0.083,northeast,5.6,No
2021/04/10,13:00,0.173,0.153,0.252,0.237,0.236,0.134,0.083,northeast,4.2,No
2021/04/10,13:10,0.173,0.153,0.252,0.237,0.234,0.133,0.082,northeast,4.7,No
2021/04/10,13:20,0.172,0.153,0.251,0.237,0.237,0.134,0.082,north-northeast,4.9,No
2021/04/10,13:30,0.171,0.153,0.252,0.237,0.234,0.134,0.083,northeast,4.7,No
2021/04/10,13:40,0.171,0.154,0.253,0.236,0.236,0.134,0.082,northeast,3.4,No
2021/04/10,13:50,0.172,0.153,0.252,0.240,0.236,0.133,0.082,northeast,4.3,No
2021/04/10,14:00,0.172,0.152,0.252,0.238,0.236,0.134,0.083,northeast,4.1,No
2021/04/10,14:10,0.172,0.153,0.251,0.238,0.236,0.134,0.083,northeast,3.6,No
2021/04/10,14:20,0.171,0.154,0.252,0.238,0.234,0.134,0.083,northeast,4.1,No
2021/04/10,14:30,0.173,0.154,0.253,0.239,0.238,0.135,0.082,northeast,4.8,No
2021/04/10,14:40,0.172,0.154,0.252,0.239,0.235,0.134,0.083,northeast,4.9,No
2021/04/10,14:50,0.174,0.154,0.254,0.240,0.238,0.134,0.082,north-northeast,4.6,No
2021/04/10,15:00,0.172,0.153,0.252,0.238,0.236,0.133,0.083,north-northeast,3.2,No
2021/04/10,15:10,0.172,0.154,0.254,0.238,0.239,0.134,0.082,north-northeast,3.2,No
2021/04/10,15:20,0.172,0.153,0.254,0.239,0.236,0.133,0.083,north-northeast,4.8,No
2021/04/10,15:30,0.172,0.154,0.252,0.238,0.237,0.134,0.083,north-northeast,3.1,No
2021/04/10,15:40,0.172,0.154,0.253,0.238,0.235,0.134,0.083,northeast,2.4,No
2021/04/10,15:50,0.172,0.154,0.255,0.238,0.233,0.135,0.082,northeast,1.9,No
2021/04/10,16:00,0.173,0.153,0.253,0.239,0.236,0.134,0.082,east-northeast,2.2,No
2021/04/10,16:10,0.171,0.155,0.254,0.239,0.235,0.134,0.083,east-northeast,2.4,No
2021/04/10,16:20,0.173,0.154,0.254,0.239,0.238,0.134,0.083,northeast,1.1,No
2021/04/10,16:30,0.172,0.154,0.253,0.240,0.235,0.135,0.083,northeast,1.4,No
2021/04/10,16:40,0.173,0.154,0.254,0.239,0.238,0.133,0.082,east-northeast,1.4,No
2021/04/10,16:50,0.172,0.153,0.253,0.238,0.236,0.135,0.082,north-northeast,1.8,No
2021/04/10,17:00,0.173,0.154,0.253,0.240,0.237,0.134,0.083,north,1.8,No
2021/04/10,17:10,0.172,0.153,0.253,0.239,0.237,0.134,0.083,north,0.8,No
2021/04/10,17:20,0.173,0.154,0.254,0.239,0.235,0.135,0.083,north,1.4,No
2021/04/10,17:30,0.172,0.154,0.253,0.238,0.237,0.135,0.083,north,1.5,No
2021/04/10,17:40,0.173,0.154,0.254,0.240,0.236,0.136,0.083,north,1.2,No
2021/04/10,17:50,0.172,0.154,0.254,0.240,0.237,0.135,0.083,-,CALM,No
2021/04/10,18:00,0.172,0.154,0.254,0.240,0.237,0.135,0.083,north-northeast,2.1,No
2021/04/10,18:10,0.171,0.153,0.253,0.238,0.236,0.135,0.083,-,CALM,No
2021/04/10,18:20,0.172,0.154,0.254,0.239,0.237,0.135,0.083,-,CALM,No
2021/04/10,18:30,0.172,0.154,0.253,0.239,0.236,0.135,0.082,-,CALM,No
2021/04/10,18:40,0.173,0.154,0.252,0.241,0.236,0.134,0.083,-,CALM,No
2021/04/10,18:50,0.174,0.154,0.253,0.238,0.236,0.135,0.082,-,CALM,No
2021/04/10,19:00,0.172,0.154,0.254,0.239,0.237,0.134,0.082,-,CALM,No
2021/04/10,19:10,0.172,0.154,0.253,0.240,0.235,0.136,0.083,west,1.2,No
2021/04/10,19:20,0.173,0.154,0.254,0.240,0.236,0.135,0.083,west-northwest,1.3,No
2021/04/10,19:30,0.173,0.154,0.253,0.240,0.237,0.135,0.083,-,CALM,No
2021/04/10,19:40,0.173,0.153,0.253,0.239,0.236,0.134,0.082,-,CALM,No
2021/04/10,19:50,0.173,0.155,0.254,0.238,0.235,0.134,0.082,-,CALM,No
2021/04/10,20:00,0.172,0.154,0.253,0.239,0.236,0.134,0.083,-,CALM,No
2021/04/10,20:10,0.172,0.153,0.254,0.239,0.236,0.135,0.083,-,CALM,No
2021/04/10,20:20,0.172,0.154,0.253,0.239,0.236,0.135,0.083,-,CALM,No
2021/04/10,20:30,0.173,0.155,0.253,0.239,0.237,0.134,0.082,west-northwest,2.5,No
2021/04/10,20:40,0.173,0.153,0.253,0.241,0.235,0.136,0.083,-,CALM,No
2021/04/10,20:50,0.172,0.154,0.253,0.239,0.236,0.135,0.083,northwest,3.4,No
2021/04/10,21:00,0.172,0.154,0.253,0.240,0.235,0.134,0.083,northwest,3.9,No
2021/04/10,21:10,0.173,0.153,0.254,0.240,0.237,0.135,0.083,northwest,5.3,No
2021/04/10,21:20,0.173,0.154,0.254,0.239,0.236,0.135,0.083,northwest,5.7,No
2021/04/10,21:30,0.173,0.154,0.253,0.239,0.237,0.135,0.084,northwest,6.7,No
2021/04/10,21:40,0.174,0.154,0.254,0.240,0.236,0.135,0.083,northwest,6.9,No
2021/04/10,21:50,0.174,0.154,0.254,0.240,0.236,0.134,0.083,northwest,6.7,No
2021/04/10,22:00,0.172,0.154,0.253,0.240,0.235,0.134,0.083,northwest,6.8,No
2021/04/10,22:10,0.173,0.154,0.253,0.239,0.235,0.134,0.083,northwest,7.0,No
2021/04/10,22:20,0.172,0.154,0.255,0.240,0.236,0.135,0.083,northwest,7.3,No
2021/04/10,22:30,0.173,0.154,0.254,0.239,0.238,0.134,0.083,northwest,7.2,No
2021/04/10,22:40,0.173,0.154,0.254,0.240,0.236,0.134,0.082,northwest,7.5,No
2021/04/10,22:50,0.173,0.154,0.255,0.238,0.236,0.135,0.083,northwest,7.7,No
2021/04/10,23:00,0.173,0.154,0.255,0.239,0.236,0.135,0.083,northwest,7.3,No
2021/04/10,23:10,0.172,0.154,0.253,0.239,0.236,0.135,0.082,northwest,6.9,No
2021/04/10,23:20,0.172,0.154,0.254,0.238,0.236,0.134,0.083,northwest,6.6,No
2021/04/10,23:30,0.172,0.154,0.254,0.238,0.237,0.135,0.084,northwest,6.7,No
2021/04/10,23:40,0.173,0.155,0.254,0.238,0.237,0.135,0.083,northwest,6.3,No
2021/04/10,23:50,0.173,0.154,0.254,0.239,0.236,0.135,0.083,northwest,6.3,No
